Tracking 32427 objects as of 10-Dec-2025
HD Live streaming from Space Station
objects crossing your sky now

STARLINK-32714

Track STARLINK-32714 now!
10-day predictions
STARLINK-32714 is classified as:


NORAD ID: 62499
Int'l Code: 2025-003N
Perigee: 489.5 km
Apogee: 490.6 km
Inclination: 43.0 °
Period: 94.3 minutes
Semi major axis: 6861 km
RCS: Unknown
Launch date: January 6, 2025
Source: United States (US)
Launch site: AIR FORCE EASTERN TEST RANGE (AFETR)
Your satellite tracking list
Your tracking list is empty




NASA's NSSDC Master Catalog

Two Line Element Set (TLE):
1 62499U 25003N   25343.69293770  .00036687  00000-0  13343-2 0  9996
2 62499  42.9989  77.5787 0000844 287.4529  72.6231 15.27624486 52909
Source of the keplerian elements: AFSPC